| time (UTC) | temp C | wind direction | speed KPH | gust KPH | rain 1hr cm | rain 24hr cm | rain mn cm | humidity % | barometer mb |
| 20260506072726 | 8 | 284 | 12.9 | 20.9 | 0.00 | 0.00 | 0.00 | 45 | 1013.1 |
| 20260506070725 | 8 | 274 | 6.4 | 16.1 | 0.00 | 0.00 | 0.00 | 50 | 1012.9 |
| 20260506060725 | 6 | 255 | 8.0 | 14.5 | 0.00 | 0.00 | 0.00 | 56 | 1012.6 |
| 20260506050724 | 5 | 288 | 9.7 | 14.5 | 0.00 | 0.00 | 0.00 | 73 | 1012.1 |
| 20260506044725 | 4 | 276 | 9.7 | 12.9 | 0.00 | 0.00 | 0.00 | 76 | 1012.0 |
| 20260506042724 | 3 | 270 | 9.7 | 11.3 | 0.00 | 0.00 | 0.00 | 80 | 1011.8 |
| 20260506040724 | 2 | 269 | 8.0 | 9.7 | 0.00 | 0.00 | 0.00 | 86 | 1011.6 |
| 20260506034725 | 2 | 268 | 9.7 | 11.3 | 0.00 | 0.00 | 0.00 | 86 | 1011.4 |
| 20260506032724 | 1 | 280 | 9.7 | 11.3 | 0.00 | 0.00 | 0.00 | 87 | 1011.2 |
| 20260506030724 | 0 | 282 | 8.0 | 11.3 | 0.00 | 0.00 | 0.00 | 89 | 1011.1 |
| 20260506024724 | 0 | 283 | 9.7 | 11.3 | 0.00 | 0.00 | 0.00 | 93 | 1010.9 |
| 20260506022724 | 0 | 262 | 9.7 | 9.7 | 0.00 | 0.00 | 0.00 | 92 | 1010.8 |
| 20260506020724 | 0 | 256 | 9.7 | 11.3 | 0.00 | 0.00 | 0.00 | 92 | 1010.8 |
| 20260506014724 | 0 | 256 | 9.7 | 9.7 | 0.00 | 0.00 | 0.00 | 91 | 1010.7 |
| 20260506012724 | 0 | 257 | 6.4 | 9.7 | 0.00 | 0.00 | 0.00 | 92 | 1010.4 |
| 20260506010724 | 0 | 256 | 6.4 | 6.4 | 0.00 | 0.00 | 0.00 | 90 | 1010.3 |
| 20260506004723 | 0 | 266 | 6.4 | 8.0 | 0.00 | 0.00 | 0.00 | 89 | 1010.0 |
| 20260506002724 | 0 | 243 | 6.4 | 8.0 | 0.00 | 0.00 | 0.00 | 86 | 1009.9 |
| 20260506000724 | 0 | 259 | 8.0 | 8.0 | 0.00 | 0.00 | 0.00 | 86 | 1009.8 |
| 20260505234724 | 0 | 262 | 8.0 | 9.7 | 0.00 | 0.00 | 0.00 | 87 | 1009.6 |
| 20260505232724 | 0 | 261 | 8.0 | 8.0 | 0.00 | 0.00 | 0.00 | 86 | 1009.5 |
| 20260505230724 | 0 | 250 | 8.0 | 9.7 | 0.00 | 0.00 | 0.00 | 86 | 1009.5 |
| 20260505224723 | 0 | 261 | 6.4 | 8.0 | 0.00 | 0.00 | 0.00 | 87 | 1009.5 |
| 20260505222723 | 0 | 274 | 8.0 | 9.7 | 0.00 | 0.00 | 0.00 | 85 | 1009.5 |
| 20260505220724 | 0 | 249 | 6.4 | 8.0 | 0.00 | 0.00 | 0.00 | 81 | 1009.3 |
| 20260505214724 | 0 | 252 | 6.4 | 6.4 | 0.00 | 0.00 | 0.00 | 81 | 1009.3 |
| 20260505212723 | 0 | 249 | 4.8 | 6.4 | 0.00 | 0.00 | 0.00 | 80 | 1009.3 |
| 20260505210723 | 1 | 252 | 4.8 | 6.4 | 0.00 | 0.00 | 0.00 | 76 | 1009.2 |
| 20260505204723 | 1 | 263 | 6.4 | 8.0 | 0.00 | 0.00 | 0.00 | 75 | 1009.1 |
| 20260505202724 | 1 | 266 | 8.0 | 8.0 | 0.00 | 0.00 | 0.00 | 73 | 1009.0 |
| 20260505200723 | 1 | 282 | 8.0 | 9.7 | 0.00 | 0.00 | 0.00 | 72 | 1008.8 |
| 20260505194722 | 2 | 272 | 8.0 | 9.7 | 0.00 | 0.00 | 0.00 | 68 | 1008.6 |
| 20260505192723 | 2 | 278 | 9.7 | 11.3 | 0.00 | 0.00 | 0.00 | 68 | 1008.5 |
| 20260505190722 | 3 | 283 | 8.0 | 11.3 | 0.00 | 0.00 | 0.00 | 64 | 1008.5 |
| 20260505184722 | 3 | 289 | 9.7 | 12.9 | 0.00 | 0.00 | 0.00 | 62 | 1008.3 |
| 20260505182722 | 4 | 288 | 12.9 | 19.3 | 0.00 | 0.00 | 0.00 | 59 | 1008.1 |
| 20260505180722 | 5 | 282 | 12.9 | 19.3 | 0.00 | 0.00 | 0.00 | 60 | 1007.9 |
| 20260505174722 | 5 | 289 | 11.3 | 17.7 | 0.00 | 0.00 | 0.00 | 59 | 1007.7 |
| 20260505172721 | 6 | 282 | 16.1 | 24.1 | 0.00 | 0.00 | 0.00 | 56 | 1007.5 |
| 20260505170722 | 6 | 287 | 20.9 | 27.4 | 0.00 | 0.00 | 0.00 | 53 | 1007.5 |
| 20260505164722 | 6 | 288 | 20.9 | 29.0 | 0.00 | 0.00 | 0.00 | 52 | 1007.3 |
| 20260505162722 | 6 | 289 | 17.7 | 29.0 | 0.00 | 0.00 | 0.00 | 50 | 1007.2 |
| 20260505160722 | 6 | 302 | 16.1 | 25.7 | 0.00 | 0.00 | 0.00 | 54 | 1007.0 |
| 20260505152721 | 7 | 288 | 17.7 | 25.7 | 0.00 | 0.00 | 0.00 | 48 | 1006.9 |
| 20260505150722 | 6 | 289 | 19.3 | 29.0 | 0.00 | 0.00 | 0.00 | 50 | 1006.9 |
| 20260505124721 | 8 | 281 | 27.4 | 45.1 | 0.00 | 0.00 | 0.00 | 48 | 1006.0 |
| 20260505122721 | 8 | 273 | 30.6 | 45.1 | 0.00 | 0.00 | 0.00 | 44 | 1005.8 |
| 20260505120721 | 8 | 279 | 27.4 | 41.8 | 0.00 | 0.00 | 0.00 | 49 | 1005.8 |
| 20260505114721 | 7 | 283 | 24.1 | 40.2 | 0.00 | 0.00 | 0.00 | 54 | 1005.6 |
| 20260505112721 | 7 | 290 | 25.7 | 37.0 | 0.00 | 0.00 | 0.00 | 53 | 1005.5 |
| 20260505110721 | 8 | 286 | 22.5 | 33.8 | 0.00 | 0.00 | 0.00 | 47 | 1005.3 |
| 20260505100721 | 7 | 291 | 22.5 | 35.4 | 0.00 | 0.00 | 0.00 | 51 | 1004.7 |
| 20260505094720 | 7 | 294 | 19.3 | 29.0 | 0.00 | 0.00 | 0.00 | 52 | 1004.6 |
| 20260505092720 | 8 | 292 | 19.3 | 32.2 | 0.00 | 0.00 | 0.00 | 53 | 1004.3 |
| 20260505090720 | 7 | 309 | 17.7 | 24.1 | 0.00 | 0.00 | 0.00 | 57 | 1004.3 |
| 20260505084721 | 8 | 302 | 17.7 | 30.6 | 0.00 | 0.00 | 0.00 | 57 | 1004.0 |
| 20260505082720 | 6 | 312 | 17.7 | 27.4 | 0.00 | 0.00 | 0.00 | 61 | 1003.8 |
| 20260505080720 | 6 | 305 | 14.5 | 24.1 | 0.00 | 0.00 | 0.00 | 68 | 1003.5 |